This is the latest recevied weather packets stored in our database for station/object OK2ILA-1. If no packets are shown the sender has not sent any weather packets the latest 10 day(s).
| Time | Temp. | Humidity | Pressure | Rain* | Wind** | Luminosity | Snow |
|---|---|---|---|---|---|---|---|
| 1788339584 | 22.22° C | 100% | 1022.9 hPa | 0 mm | - | - | - |
| 1788338863 | 21.67° C | 100% | 1023.2 hPa | 0 mm | - | - | - |
| 1788338143 | 21.67° C | 100% | 1023.2 hPa | 0 mm | - | - | - |
| 1788337422 | 21.11° C | 100% | 1023.3 hPa | 0 mm | - | - | - |
| 1788336701 | 20.56° C | 100% | 1023.3 hPa | 0 mm | - | - | - |
| 1788335981 | 20.56° C | 100% | 1023.2 hPa | 0 mm | - | - | - |
| 1788335260 | 20.56° C | 100% | 1023.1 hPa | 0 mm | - | - | - |
| 1788334539 | 20.56° C | 100% | 1023.1 hPa | 0 mm | - | - | - |
| 1788333819 | 19.44° C | 100% | 1022.9 hPa | 0 mm | - | - | - |
| 1788333098 | 18.89° C | 100% | 1022.8 hPa | 0 mm | - | - | - |
| 1788332377 | 18.33° C | 100% | 1022.7 hPa | 0 mm | - | - | - |
| 1788331657 | 17.78° C | 100% | 1022.7 hPa | 0 mm | - | - | - |
| 1788330936 | 17.22° C | 100% | 1022.6 hPa | 0 mm | - | - | - |
| 1788330215 | 16.67° C | 100% | 1022.6 hPa | 0 mm | - | - | - |
| 1788329495 | 16.11° C | 100% | 1022.7 hPa | 0 mm | - | - | - |
| 1788328774 | 15.56° C | 100% | 1022.8 hPa | 0 mm | - | - | - |
| 1788328053 | 14.44° C | 100% | 1022.9 hPa | 0 mm | - | - | - |
| 1788327333 | 13.89° C | 100% | 1022.8 hPa | 0 mm | - | - | - |
| 1788326612 | 13.89° C | 100% | 1022.7 hPa | 0 mm | - | - | - |
| 1788325891 | 12.78° C | 100% | 1022.7 hPa | 0 mm | - | - | - |
| 1788325170 | 12.78° C | 100% | 1022.8 hPa | 0 mm | - | - | - |
| 1788323729 | 12.22° C | 100% | 1022.8 hPa | 0 mm | - | - | - |
| 1788322288 | 12.22° C | 100% | 1022.7 hPa | 0 mm | - | - | - |
| 1788302351 | 13.89° C | 100% | 1022.9 hPa | 0 mm | - | - | - |
| 1788302109 | 13.89° C | 100% | 1022.9 hPa | 0 mm | - | - | - |
* Rain latest hour (hover to see other rain measurements)
** Current wind speed in m/s (hover to see current wind gust speed)